#Datum;Uhrzeit;WR;Pac;DaySum;Status;WR;Pac;DaySum;Status;Pdc1;Udc;Temp;WR;Pac;DaySum;Status;Pdc1;Udc;Temp;WR;Pac;DaySum;Status;Pdc1;Udc;Temp;WR;Pac;DaySum;Status;Pdc1;Pdc2;Udc1;Udc2;Temp;WR;Pac;DaySum;Status;Pdc1;Pdc2;Udc1;Udc2;Temp;WR;Pac;DaySum;Status;Pdc1;Udc;Temp;WR;Pac;DaySum;Status;Pdc1;Udc;Temp;WR;Pac;DaySum;Status;Pdc1;Udc;Temp
11.12.17;23:55:00;1;570;14334;0;2;0;2376;0;0;0;0;3;0;1416;0;0;0;0;4;0;1948;0;0;0;0;5;0;5362;0;0;0;0;0;0;6;0;3507;0;0;0;0;0;0;7;0;2580;0;0;0;0;8;0;2586;0;0;0;0;9;0;1337;0;0;0;0
11.12.17;23:50:00;1;425;14300;0;2;0;2376;0;0;0;0;3;0;1416;0;0;0;0;4;0;1948;0;0;0;0;5;0;5362;0;0;0;0;0;0;6;0;3507;0;0;0;0;0;0;7;0;2580;0;0;0;0;8;0;2586;0;0;0;0;9;0;1337;0;0;0;0
11.12.17;23:45:00;1;485;14264;0;2;0;2376;0;0;0;0;3;0;1416;0;0;0;0;4;0;1948;0;0;0;0;5;0;5362;0;0;0;0;0;0;6;0;3507;0;0;0;0;0;0;7;0;2580;0;0;0;0;8;0;2586;0;0;0;0;9;0;1337;0;0;0;0
11.12.17;23:40:00;1;946;14224;0;2;0;2376;0;0;0;0;3;0;1416;0;0;0;0;4;0;1948;0;0;0;0;5;0;5362;0;0;0;0;0;0;6;0;3507;0;0;0;0;0;0;7;0;2580;0;0;0;0;8;0;2586;0;0;0;0;9;0;1337;0;0;0;0
11.12.17;23:35:00;1;529;14155;0;2;0;2376;0;0;0;0;3;0;1416;0;0;0;0;4;0;1948;0;0;0;0;5;0;5362;0;0;0;0;0;0;6;0;3507;0;0;0;0;0;0;7;0;2580;0;0;0;0;8;0;2586;0;0;0;0;9;0;1337;0;0;0;0
11.12.17;23:30:00;1;528;14111;0;2;0;2376;0;0;0;0;3;0;1416;0;0;0;0;4;0;1948;0;0;0;0;5;0;5362;0;0;0;0;0;0;6;0;3507;0;0;0;0;0;0;7;0;2580;0;0;0;0;8;0;2586;0;0;0;0;9;0;1337;0;0;0;0
11.12.17;23:25:00;1;922;14067;0;2;0;2376;0;0;0;0;3;0;1416;0;0;0;0;4;0;1948;0;0;0;0;5;0;5362;0;0;0;0;0;0;6;0;3507;0;0;0;0;0;0;7;0;2580;0;0;0;0;8;0;2586;0;0;0;0;9;0;1337;0;0;0;0
11.12.17;23:20:00;1;488;13993;0;2;0;2376;0;0;0;0;3;0;1416;0;0;0;0;4;0;1948;0;0;0;0;5;0;5362;0;0;0;0;0;0;6;0;3507;0;0;0;0;0;0;7;0;2580;0;0;0;0;8;0;2586;0;0;0;0;9;0;1337;0;0;0;0
11.12.17;23:15:00;1;487;13953;0;2;0;2376;0;0;0;0;3;0;1416;0;0;0;0;4;0;1948;0;0;0;0;5;0;5362;0;0;0;0;0;0;6;0;3507;0;0;0;0;0;0;7;0;2580;0;0;0;0;8;0;2586;0;0;0;0;9;0;1337;0;0;0;0
11.12.17;23:10:00;1;851;13912;0;2;0;2376;0;0;0;0;3;0;1416;0;0;0;0;4;0;1948;0;0;0;0;5;0;5362;0;0;0;0;0;0;6;0;3507;0;0;0;0;0;0;7;0;2580;0;0;0;0;8;0;2586;0;0;0;0;9;0;1337;0;0;0;0
11.12.17;23:05:00;1;509;13838;0;2;0;2376;0;0;0;0;3;0;1416;0;0;0;0;4;0;1948;0;0;0;0;5;0;5362;0;0;0;0;0;0;6;0;3507;0;0;0;0;0;0;7;0;2580;0;0;0;0;8;0;2586;0;0;0;0;9;0;1337;0;0;0;0
11.12.17;23:00:00;1;529;13797;0;2;0;2376;0;0;0;0;3;0;1416;0;0;0;0;4;0;1948;0;0;0;0;5;0;5362;0;0;0;0;0;0;6;0;3507;0;0;0;0;0;0;7;0;2580;0;0;0;0;8;0;2586;0;0;0;0;9;0;1337;0;0;0;0
11.12.17;22:55:00;1;798;13752;0;2;0;2376;0;0;0;0;3;0;1416;0;0;0;0;4;0;1948;0;0;0;0;5;0;5362;2;0;0;0;0;0;6;0;3507;2;0;0;0;0;0;7;0;2580;0;0;0;0;8;0;2586;0;0;0;0;9;0;1337;0;0;0;0
11.12.17;22:50:00;1;978;13677;0;2;0;2376;0;0;0;0;3;0;1416;0;0;0;0;4;0;1948;0;0;0;0;5;0;5362;2;0;0;0;0;0;6;0;3507;2;0;0;0;0;0;7;0;2580;0;0;0;0;8;0;2586;0;0;0;0;9;0;1337;0;0;0;0
11.12.17;22:45:00;1;636;13618;0;2;0;2376;0;0;0;0;3;0;1416;0;0;0;0;4;0;1948;0;0;0;0;5;0;5362;2;0;0;0;0;0;6;0;3507;2;0;0;0;0;0;7;0;2580;0;0;0;0;8;0;2586;0;0;0;0;9;0;1337;0;0;0;0
11.12.17;22:40:00;1;685;13564;0;2;0;2376;0;0;0;0;3;0;1416;0;0;0;0;4;0;1948;0;0;0;0;5;0;5362;2;0;0;0;0;0;6;0;3507;2;0;0;0;0;0;7;0;2580;0;0;0;0;8;0;2586;0;0;0;0;9;0;1337;0;0;0;0
11.12.17;22:35:00;1;1110;13507;0;2;0;2376;0;0;0;0;3;0;1416;0;0;0;0;4;0;1948;0;0;0;0;5;0;5362;2;0;0;0;0;0;6;0;3507;2;0;0;0;0;0;7;0;2580;0;0;0;0;8;0;2586;0;0;0;0;9;0;1337;0;0;0;0
11.12.17;22:30:00;1;686;13416;0;2;0;2376;0;0;0;0;3;0;1416;0;0;0;0;4;0;1948;0;0;0;0;5;0;5362;2;0;0;0;0;0;6;0;3507;2;0;0;0;0;0;7;0;2580;0;0;0;0;8;0;2586;0;0;0;0;9;0;1337;0;0;0;0
11.12.17;22:25:00;1;759;13357;0;2;0;2376;0;0;0;0;3;0;1416;0;0;0;0;4;0;1948;0;0;0;0;5;0;5362;2;0;0;0;0;0;6;0;3507;2;0;0;0;0;0;7;0;2580;0;0;0;0;8;0;2586;0;0;0;0;9;0;1337;0;0;0;0
11.12.17;22:20:00;1;1440;13293;0;2;0;2376;0;0;0;0;3;0;1416;0;0;0;0;4;0;1948;0;0;0;0;5;0;5362;2;0;0;0;0;0;6;0;3507;2;0;0;0;0;0;7;0;2580;0;0;0;0;8;0;2586;0;0;0;0;9;0;1337;0;0;0;0
11.12.17;22:15:00;1;749;13200;0;2;0;2376;0;0;0;0;3;0;1416;0;0;0;0;4;0;1948;0;0;0;0;5;0;5362;2;0;0;0;0;0;6;0;3507;2;0;0;0;0;0;7;0;2580;0;0;0;0;8;0;2586;0;0;0;0;9;0;1337;0;0;0;0
11.12.17;22:10:00;1;762;13138;0;2;0;2376;0;0;0;0;3;0;1416;0;0;0;0;4;0;1948;0;0;0;0;5;0;5362;2;0;0;0;0;0;6;0;3507;2;0;0;0;0;0;7;0;2580;0;0;0;0;8;0;2586;0;0;0;0;9;0;1337;0;0;0;0
11.12.17;22:05:00;1;954;13074;0;2;0;2376;0;0;0;0;3;0;1416;0;0;0;0;4;0;1948;0;0;0;0;5;0;5362;2;0;0;0;0;0;6;0;3507;2;0;0;0;0;0;7;0;2580;0;0;0;0;8;0;2586;0;0;0;0;9;0;1337;0;0;0;0
11.12.17;22:00:00;1;767;12979;0;2;0;2376;0;0;0;0;3;0;1416;0;0;0;0;4;0;1948;0;0;0;0;5;0;5362;2;0;0;0;0;0;6;0;3507;2;0;0;0;0;0;7;0;2580;0;0;0;0;8;0;2586;0;0;0;0;9;0;1337;0;0;0;0
11.12.17;21:55:00;1;752;12916;0;2;0;2376;0;0;0;0;3;0;1416;0;0;0;0;4;0;1948;0;0;0;0;5;0;5362;2;0;0;0;0;0;6;0;3507;2;0;0;0;0;0;7;0;2580;0;0;0;0;8;0;2586;0;0;0;0;9;0;1337;0;0;0;0
11.12.17;21:50:00;1;774;12853;0;2;0;2376;0;0;0;0;3;0;1416;0;0;0;0;4;0;1948;0;0;0;0;5;0;5362;2;0;0;0;0;0;6;0;3507;2;0;0;0;0;0;7;0;2580;0;0;0;0;8;0;2586;0;0;0;0;9;0;1337;0;0;0;0
11.12.17;21:45:00;1;1206;12788;0;2;0;2376;0;0;0;0;3;0;1416;0;0;0;0;4;0;1948;0;0;0;0;5;0;5362;2;0;0;0;0;0;6;0;3507;2;0;0;0;0;0;7;0;2580;0;0;0;0;8;0;2586;0;0;0;0;9;0;1337;0;0;0;0
11.12.17;21:40:00;1;802;12687;0;2;0;2376;0;0;0;0;3;0;1416;0;0;0;0;4;0;1948;0;0;0;0;5;0;5362;2;0;0;0;0;0;6;0;3507;2;0;0;0;0;0;7;0;2580;0;0;0;0;8;0;2586;0;0;0;0;9;0;1337;0;0;0;0
11.12.17;21:35:00;1;780;12619;0;2;0;2376;0;0;0;0;3;0;1416;0;0;0;0;4;0;1948;0;0;0;0;5;0;5362;2;0;0;0;0;0;6;0;3507;2;0;0;0;0;0;7;0;2580;0;0;0;0;8;0;2586;0;0;0;0;9;0;1337;0;0;0;0
11.12.17;21:30:00;1;1129;12554;0;2;0;2376;0;0;0;0;3;0;1416;0;0;0;0;4;0;1948;0;0;0;0;5;0;5362;2;0;0;0;0;0;6;0;3507;2;0;0;0;0;0;7;0;2580;0;0;0;0;8;0;2586;0;0;0;0;9;0;1337;0;0;0;0
11.12.17;21:25:00;1;761;12457;0;2;0;2376;0;0;0;0;3;0;1416;0;0;0;0;4;0;1948;0;0;0;0;5;0;5362;2;0;0;0;0;0;6;0;3507;2;0;0;0;0;0;7;0;2580;0;0;0;0;8;0;2586;0;0;0;0;9;0;1337;0;0;0;0
11.12.17;21:20:00;1;762;12393;0;2;0;2376;0;0;0;0;3;0;1416;0;0;0;0;4;0;1948;0;0;0;0;5;0;5362;2;0;0;0;0;0;6;0;3507;2;0;0;0;0;0;7;0;2580;0;0;0;0;8;0;2586;0;0;0;0;9;0;1337;0;0;0;0
11.12.17;21:15:00;1;775;12330;0;2;0;2376;0;0;0;0;3;0;1416;0;0;0;0;4;0;1948;0;0;0;0;5;0;5362;2;0;0;0;0;0;6;0;3507;2;0;0;0;0;0;7;0;2580;0;0;0;0;8;0;2586;0;0;0;0;9;0;1337;0;0;0;0
11.12.17;21:10:00;1;1193;12255;0;2;0;2376;0;0;0;0;3;0;1416;0;0;0;0;4;0;1948;0;0;0;0;5;0;5362;2;0;0;0;0;0;6;0;3507;2;0;0;0;0;0;7;0;2580;0;0;0;0;8;0;2586;0;0;0;0;9;0;1337;0;0;0;0
11.12.17;21:05:00;1;761;12165;0;2;0;2376;0;0;0;0;3;0;1416;0;0;0;0;4;0;1948;0;0;0;0;5;0;5362;2;0;0;0;0;0;6;0;3507;2;0;0;0;0;0;7;0;2580;0;0;0;0;8;0;2586;0;0;0;0;9;0;1337;0;0;0;0
11.12.17;21:00:00;1;768;12102;0;2;0;2376;0;0;0;0;3;0;1416;0;0;0;0;4;0;1948;0;0;0;0;5;0;5362;2;0;0;0;0;0;6;0;3507;2;0;0;0;0;0;7;0;2580;0;0;0;0;8;0;2586;0;0;0;0;9;0;1337;0;0;0;0
11.12.17;20:55:00;1;1378;12038;0;2;0;2376;0;0;0;0;3;0;1416;0;0;0;0;4;0;1948;0;0;0;0;5;0;5362;2;0;0;0;0;0;6;0;3507;2;0;0;0;0;0;7;0;2580;0;0;0;0;8;0;2586;0;0;0;0;9;0;1337;0;0;0;0
11.12.17;20:50:00;1;795;11940;0;2;0;2376;0;0;0;0;3;0;1416;0;0;0;0;4;0;1948;0;0;0;0;5;0;5362;2;0;0;0;0;0;6;0;3507;2;0;0;0;0;0;7;0;2580;0;0;0;0;8;0;2586;0;0;0;0;9;0;1337;0;0;0;0
11.12.17;20:45:00;1;812;11873;0;2;0;2376;0;0;0;0;3;0;1416;0;0;0;0;4;0;1948;0;0;0;0;5;0;5362;2;0;0;0;0;0;6;0;3507;2;0;0;0;0;0;7;0;2580;0;0;0;0;8;0;2586;0;0;0;0;9;0;1337;0;0;0;0
11.12.17;20:40:00;1;1299;11805;0;2;0;2376;0;0;0;0;3;0;1416;0;0;0;0;4;0;1948;0;0;0;0;5;0;5362;2;0;0;0;0;0;6;0;3507;2;0;0;0;0;0;7;0;2580;0;0;0;0;8;0;2586;0;0;0;0;9;0;1337;0;0;0;0
11.12.17;20:35:00;1;752;11711;0;2;0;2376;0;0;0;0;3;0;1416;0;0;0;0;4;0;1948;0;0;0;0;5;0;5362;2;0;0;0;0;0;6;0;3507;2;0;0;0;0;0;7;0;2580;0;0;0;0;8;0;2586;0;0;0;0;9;0;1337;0;0;0;0
11.12.17;20:30:00;1;1481;11648;0;2;0;2376;0;0;0;0;3;0;1416;0;0;0;0;4;0;1948;0;0;0;0;5;0;5362;2;0;0;0;0;0;6;0;3507;2;0;0;0;0;0;7;0;2580;0;0;0;0;8;0;2586;0;0;0;0;9;0;1337;0;0;0;0
11.12.17;20:25:00;1;697;11530;0;2;0;2376;0;0;0;0;3;0;1416;0;0;0;0;4;0;1948;0;0;0;0;5;0;5362;2;0;0;0;0;0;6;0;3507;2;0;0;0;0;0;7;0;2580;0;0;0;0;8;0;2586;0;0;0;0;9;0;1337;0;0;0;0
11.12.17;20:20:00;1;1048;11454;0;2;0;2376;0;0;0;0;3;0;1416;0;0;0;0;4;0;1948;0;0;0;0;5;0;5362;2;0;0;0;0;0;6;0;3507;2;0;0;0;0;0;7;0;2580;0;0;0;0;8;0;2586;0;0;0;0;9;0;1337;0;0;0;0
11.12.17;20:15:00;1;702;11382;0;2;0;2376;0;0;0;0;3;0;1416;0;0;0;0;4;0;1948;0;0;0;0;5;0;5362;2;0;0;0;0;0;6;0;3507;2;0;0;0;0;0;7;0;2580;0;0;0;0;8;0;2586;0;0;0;0;9;0;1337;0;0;0;0
11.12.17;20:10:00;1;1631;11324;0;2;0;2376;0;0;0;0;3;0;1416;0;0;0;0;4;0;1948;0;0;0;0;5;0;5362;2;0;0;0;0;0;6;0;3507;2;0;0;0;0;0;7;0;2580;0;0;0;0;8;0;2586;0;0;0;0;9;0;1337;0;0;0;0
11.12.17;20:05:00;1;1155;11189;0;2;0;2376;0;0;0;0;3;0;1416;0;0;0;0;4;0;1948;0;0;0;0;5;0;5362;2;0;0;0;0;0;6;0;3507;2;0;0;0;0;0;7;0;2580;0;0;0;0;8;0;2586;0;0;0;0;9;0;1337;0;0;0;0
11.12.17;20:00:00;1;778;11095;0;2;0;2376;0;0;0;0;3;0;1416;0;0;0;0;4;0;1948;0;0;0;0;5;0;5362;2;0;0;0;0;0;6;0;3507;2;0;0;0;0;0;7;0;2580;0;0;0;0;8;0;2586;0;0;0;0;9;0;1337;0;0;0;0
11.12.17;19:55:00;1;785;11031;0;2;0;2376;0;0;0;0;3;0;1416;0;0;0;0;4;0;1948;0;0;0;0;5;0;5362;2;0;0;0;0;0;6;0;3507;2;0;0;0;0;0;7;0;2580;0;0;0;0;8;0;2586;0;0;0;0;9;0;1337;0;0;0;0
11.12.17;19:50:00;1;1213;10965;0;2;0;2376;0;0;0;0;3;0;1416;0;0;0;0;4;0;1948;0;0;0;0;5;0;5362;2;0;0;0;0;0;6;0;3507;2;0;0;0;0;0;7;0;2580;0;0;0;0;8;0;2586;0;0;0;0;9;0;1337;0;0;0;0
11.12.17;19:45:00;1;907;10864;0;2;0;2376;0;0;0;0;3;0;1416;0;0;0;0;4;0;1948;0;0;0;0;5;0;5362;2;0;0;0;0;0;6;0;3507;2;0;0;0;0;0;7;0;2580;0;0;0;0;8;0;2586;0;0;0;0;9;0;1337;0;0;0;0
11.12.17;19:40:00;1;736;10799;0;2;0;2376;0;0;0;0;3;0;1416;0;0;0;0;4;0;1948;0;0;0;0;5;0;5362;2;0;0;0;0;0;6;0;3507;2;0;0;0;0;0;7;0;2580;0;0;0;0;8;0;2586;0;0;0;0;9;0;1337;0;0;0;0
11.12.17;19:35:00;1;1294;10738;0;2;0;2376;0;0;0;0;3;0;1416;0;0;0;0;4;0;1948;0;0;0;0;5;0;5362;2;0;0;0;0;0;6;0;3507;2;0;0;0;0;0;7;0;2580;0;0;0;0;8;0;2586;0;0;0;0;9;0;1337;0;0;0;0
11.12.17;19:30:00;1;717;10647;0;2;0;2376;0;0;0;0;3;0;1416;0;0;0;0;4;0;1948;0;0;0;0;5;0;5362;2;0;0;0;0;0;6;0;3507;2;0;0;0;0;0;7;0;2580;0;0;0;0;8;0;2586;0;0;0;0;9;0;1337;0;0;0;0
11.12.17;19:25:00;1;744;10588;0;2;0;2376;0;0;0;0;3;0;1416;0;0;0;0;4;0;1948;0;0;0;0;5;0;5362;2;0;0;0;0;0;6;0;3507;2;0;0;0;0;0;7;0;2580;0;0;0;0;8;0;2586;0;0;0;0;9;0;1337;0;0;0;0
11.12.17;19:20:00;1;1112;10525;0;2;0;2376;0;0;0;0;3;0;1416;0;0;0;0;4;0;1948;0;0;0;0;5;0;5362;2;0;0;0;0;0;6;0;3507;2;0;0;0;0;0;7;0;2580;0;0;0;0;8;0;2586;0;0;0;0;9;0;1337;0;0;0;0
11.12.17;19:15:00;1;1217;10419;0;2;0;2376;0;0;0;0;3;0;1416;0;0;0;0;4;0;1948;0;0;0;0;5;0;5362;2;0;0;0;0;0;6;0;3507;2;0;0;0;0;0;7;0;2580;0;0;0;0;8;0;2586;0;0;0;0;9;0;1337;0;0;0;0
11.12.17;19:10:00;1;1150;10327;0;2;0;2376;0;0;0;0;3;0;1416;0;0;0;0;4;0;1948;0;0;0;0;5;0;5362;2;0;0;0;0;0;6;0;3507;2;0;0;0;0;0;7;0;2580;0;0;0;0;8;0;2586;0;0;0;0;9;0;1337;0;0;0;0
11.12.17;19:05:00;1;1001;10236;0;2;0;2376;0;0;0;0;3;0;1416;0;0;0;0;4;0;1948;0;0;0;0;5;0;5362;2;0;0;0;0;0;6;0;3507;2;0;0;0;0;0;7;0;2580;0;0;0;0;8;0;2586;0;0;0;0;9;0;1337;0;0;0;0
11.12.17;19:00:00;1;938;10135;0;2;0;2376;0;0;0;0;3;0;1416;0;0;0;0;4;0;1948;0;0;0;0;5;0;5362;2;0;0;0;0;0;6;0;3507;2;0;0;0;0;0;7;0;2580;0;0;0;0;8;0;2586;0;0;0;0;9;0;1337;0;0;0;0
11.12.17;18:55:00;1;1005;10063;0;2;0;2376;0;0;0;0;3;0;1416;0;0;0;0;4;0;1948;0;0;0;0;5;0;5362;2;0;0;0;0;0;6;0;3507;2;0;0;0;0;0;7;0;2580;0;0;0;0;8;0;2586;0;0;0;0;9;0;1337;0;0;0;0
11.12.17;18:50:00;1;2121;9985;0;2;0;2376;0;0;0;0;3;0;1416;0;0;0;0;4;0;1948;0;0;0;0;5;0;5362;2;0;0;0;0;0;6;0;3507;2;0;0;0;0;0;7;0;2580;0;0;0;0;8;0;2586;0;0;0;0;9;0;1337;0;0;0;0
11.12.17;18:45:00;1;2888;9866;0;2;0;2376;0;0;0;0;3;0;1416;0;0;0;0;4;0;1948;0;0;0;0;5;0;5362;2;0;0;0;0;0;6;0;3507;2;0;0;0;0;0;7;0;2580;0;0;0;0;8;0;2586;0;0;0;0;9;0;1337;0;0;0;0
11.12.17;18:40:00;1;1790;9673;0;2;0;2376;0;0;0;0;3;0;1416;0;0;0;0;4;0;1948;0;0;0;0;5;0;5362;2;0;0;0;0;0;6;0;3507;2;0;0;0;0;0;7;0;2580;0;0;0;0;8;0;2586;0;0;0;0;9;0;1337;0;0;0;0
11.12.17;18:35:00;1;2260;9495;0;2;0;2376;0;0;0;0;3;0;1416;0;0;0;0;4;0;1948;0;0;0;0;5;0;5362;2;0;0;0;0;0;6;0;3507;2;0;0;0;0;0;7;0;2580;0;0;0;0;8;0;2586;0;0;0;0;9;0;1337;0;0;0;0
11.12.17;18:30:00;1;2571;9308;0;2;0;2376;0;0;0;0;3;0;1416;0;0;0;0;4;0;1948;0;0;0;0;5;0;5362;2;0;0;0;0;0;6;0;3507;2;0;0;0;0;0;7;0;2580;0;0;0;0;8;0;2586;0;0;0;0;9;0;1337;0;0;0;0
11.12.17;18:25:00;1;1165;9093;0;2;0;2376;0;0;0;0;3;0;1416;0;0;0;0;4;0;1948;0;0;0;0;5;0;5362;2;0;0;0;0;0;6;0;3507;2;0;0;0;0;0;7;0;2580;0;0;0;0;8;0;2586;0;0;0;0;9;0;1337;0;0;0;0
11.12.17;18:20:00;1;2014;8965;0;2;0;2376;0;0;0;0;3;0;1416;0;0;0;0;4;0;1948;0;0;0;0;5;0;5362;2;0;0;0;0;0;6;0;3507;2;0;0;0;0;0;7;0;2580;0;0;0;0;8;0;2586;0;0;0;0;9;0;1337;0;0;0;0
11.12.17;18:15:00;1;1882;8802;0;2;0;2376;0;0;0;0;3;0;1416;0;0;0;0;4;0;1948;0;0;0;0;5;0;5362;2;0;0;0;0;0;6;0;3507;2;0;0;0;0;0;7;0;2580;0;0;0;0;8;0;2586;0;0;0;0;9;0;1337;0;0;0;0
11.12.17;18:10:00;1;1564;8610;0;2;0;2376;0;0;0;0;3;0;1416;0;0;0;0;4;0;1948;0;0;0;0;5;0;5362;2;0;0;0;0;0;6;0;3507;2;0;0;0;0;0;7;0;2580;0;0;0;0;8;0;2586;0;0;0;0;9;0;1337;0;0;0;0
11.12.17;18:05:00;1;2264;8477;0;2;0;2376;0;0;0;0;3;0;1416;0;0;0;0;4;0;1948;0;0;0;0;5;0;5362;2;0;0;0;0;0;6;0;3507;2;0;0;0;0;0;7;0;2580;0;0;0;0;8;0;2586;0;0;0;0;9;0;1337;0;0;0;0
11.12.17;18:00:00;1;3183;8293;0;2;0;2376;0;0;0;0;3;0;1416;0;0;0;0;4;0;1948;0;0;0;0;5;0;5362;2;0;0;0;0;0;6;0;3507;2;0;0;0;0;0;7;0;2580;0;0;0;0;8;0;2586;0;0;0;0;9;0;1337;0;0;0;0
11.12.17;17:55:00;1;4129;8049;0;2;0;2376;0;0;0;0;3;0;1416;0;0;0;0;4;0;1948;0;0;0;0;5;0;5362;2;0;0;0;0;0;6;0;3507;2;0;0;0;0;0;7;0;2580;0;0;0;0;8;0;2586;0;0;0;0;9;0;1337;0;0;0;0
11.12.17;17:50:00;1;2598;7684;0;2;0;2376;0;0;0;0;3;0;1416;0;0;0;0;4;0;1948;0;0;0;0;5;0;5362;2;0;0;0;0;0;6;0;3507;2;0;0;0;0;0;7;0;2580;0;0;0;0;8;0;2586;0;0;0;0;9;0;1337;0;0;0;0
11.12.17;17:45:00;1;625;7471;0;2;0;2376;0;0;0;0;3;0;1416;0;0;0;0;4;0;1948;0;0;0;0;5;0;5362;2;0;0;0;0;0;6;0;3507;2;0;0;0;0;0;7;0;2580;0;0;0;0;8;0;2586;0;0;0;0;9;0;1337;0;0;0;0
11.12.17;17:40:00;1;948;7421;0;2;0;2376;0;0;0;0;3;0;1416;0;0;0;0;4;0;1948;0;0;0;0;5;0;5362;2;0;0;0;0;0;6;0;3507;2;0;0;0;0;0;7;0;2580;0;0;0;0;8;0;2586;0;0;0;0;9;0;1337;0;0;0;0
11.12.17;17:35:00;1;414;7355;0;2;0;2376;0;0;0;0;3;0;1416;0;0;0;0;4;0;1948;0;0;0;0;5;0;5362;2;0;0;0;0;0;6;0;3507;2;0;0;0;0;0;7;0;2580;0;0;0;0;8;0;2586;0;0;0;0;9;0;1337;0;0;0;0
11.12.17;17:30:00;1;414;7320;0;2;0;2376;0;0;0;0;3;0;1416;0;0;0;0;4;0;1948;0;0;0;0;5;0;5362;2;0;0;0;0;0;6;0;3507;2;0;0;0;0;0;7;0;2580;0;0;0;0;8;0;2586;0;0;0;0;9;0;1337;0;0;0;0
11.12.17;17:25:00;1;542;7286;0;2;0;2376;0;0;0;0;3;0;1416;0;0;0;0;4;0;1948;0;0;0;0;5;0;5362;2;0;0;0;0;0;6;0;3507;2;0;0;0;0;0;7;0;2580;0;0;0;0;8;0;2586;0;0;0;0;9;0;1337;0;0;0;0
11.12.17;17:20:00;1;331;7229;0;2;0;2376;0;0;0;0;3;0;1416;0;0;0;0;4;0;1948;0;0;0;0;5;0;5362;2;0;0;0;0;0;6;0;3507;2;0;0;0;0;0;7;0;2580;0;0;0;0;8;0;2586;0;0;0;0;9;0;1337;0;0;0;0
11.12.17;17:15:00;1;332;7201;0;2;0;2376;0;0;0;0;3;0;1416;0;0;0;0;4;0;1948;0;0;0;0;5;0;5362;2;0;0;0;0;0;6;0;3507;2;0;0;0;0;0;7;0;2580;0;0;0;0;8;0;2586;0;0;0;0;9;0;1337;0;0;0;0
11.12.17;17:10:00;1;771;7173;0;2;0;2376;0;0;0;0;3;0;1416;0;0;0;0;4;0;1948;0;0;0;0;5;0;5362;2;0;0;0;0;0;6;0;3507;2;0;0;0;0;0;7;0;2580;0;0;0;0;8;0;2586;0;0;0;0;9;0;1337;0;0;0;0
11.12.17;17:05:00;1;374;7112;0;2;0;2376;0;0;0;0;3;0;1416;0;0;0;0;4;0;1948;0;0;0;0;5;0;5362;2;0;0;0;0;0;6;0;3507;2;0;0;0;0;0;7;0;2580;0;0;0;0;8;0;2586;0;0;0;0;9;0;1337;0;0;0;0
11.12.17;17:00:00;1;476;7081;0;2;0;2376;0;0;0;0;3;0;1416;0;0;0;0;4;0;1948;0;0;0;0;5;0;5362;2;0;0;0;0;0;6;0;3507;2;0;0;0;0;0;7;0;2580;0;0;0;0;8;0;2586;0;0;0;0;9;0;1337;0;0;0;0
11.12.17;16:55:00;1;532;7050;0;2;0;2376;0;0;0;0;3;0;1416;0;0;0;0;4;0;1948;0;0;0;0;5;0;5362;2;0;0;0;0;0;6;0;3507;2;0;0;0;0;0;7;0;2580;0;0;0;0;8;0;2586;0;0;0;0;9;0;1337;0;0;0;0
11.12.17;16:50:00;1;398;6992;0;2;0;2376;0;0;0;0;3;0;1416;0;0;0;0;4;0;1948;0;0;0;0;5;0;5362;2;0;0;0;0;0;6;0;3507;2;0;0;0;0;0;7;0;2580;0;0;0;0;8;0;2586;0;0;0;0;9;0;1337;0;0;0;0
11.12.17;16:45:00;1;398;6959;0;2;0;2376;0;0;0;0;3;0;1416;0;0;0;0;4;0;1948;0;0;0;0;5;0;5362;2;0;0;0;0;0;6;0;3507;2;0;0;0;0;0;7;0;2580;0;0;0;0;8;0;2586;0;0;0;0;9;0;1337;0;0;0;0
11.12.17;16:40:00;1;602;6926;0;2;0;2376;0;0;0;0;3;0;1416;0;0;0;0;4;0;1948;0;0;0;0;5;0;5362;2;0;0;0;0;0;6;0;3507;2;0;0;0;0;0;7;0;2580;0;0;0;0;8;0;2586;0;0;0;0;9;0;1337;0;0;0;0
11.12.17;16:35:00;1;330;6864;0;2;0;2376;0;0;0;0;3;0;1416;0;0;0;0;4;0;1948;0;0;0;0;5;0;5362;2;0;0;0;0;0;6;0;3507;2;0;0;0;0;0;7;0;2580;0;0;0;0;8;0;2586;0;0;0;0;9;0;1337;0;0;0;0
11.12.17;16:30:00;1;324;6837;0;2;0;2376;0;0;35;1;3;0;1416;0;0;153;6;4;0;1948;0;0;0;0;5;0;5362;2;0;0;0;0;0;6;0;3507;2;0;0;0;0;0;7;0;2580;0;0;0;0;8;0;2586;0;0;0;0;9;0;1337;0;0;0;0
11.12.17;16:25:00;1;323;6810;0;2;0;2376;6;0;269;8;3;0;1416;6;0;297;11;4;0;1948;0;0;0;0;5;0;5362;2;0;0;0;0;0;6;0;3507;0;0;0;0;0;0;7;0;2580;0;0;0;0;8;0;2586;0;0;0;0;9;0;1337;0;0;0;0
11.12.17;16:20:00;1;528;6770;0;2;0;2376;6;0;297;8;3;0;1416;6;0;334;11;4;0;1948;0;0;66;6;5;0;5362;2;0;0;0;0;0;6;0;3507;2;0;0;0;0;0;7;0;2580;0;0;0;0;8;0;2586;0;0;0;0;9;0;1337;0;0;0;0
11.12.17;16:15:00;1;361;6727;0;2;0;2376;6;0;327;8;3;0;1416;6;0;397;11;4;0;1948;1;0;105;7;5;0;5362;1;0;9;256;254;18;6;0;3507;1;3;2;107;238;10;7;0;2580;0;0;51;2;8;0;2586;0;0;51;2;9;0;1337;0;0;105;2
11.12.17;16:10:00;1;370;6697;0;2;0;2376;6;0;357;8;3;0;1416;6;1;430;11;4;0;1948;1;0;141;7;5;0;5362;23;0;0;381;404;19;6;0;3507;23;5;4;181;503;18;7;0;2580;6;0;290;11;8;0;2586;6;0;293;11;9;0;1337;6;0;306;7
11.12.17;16:05:00;1;575;6666;0;2;0;2376;6;0;369;8;3;0;1416;6;0;458;11;4;0;1948;1;0;161;7;5;0;5362;26;0;0;406;578;19;6;0;3507;23;6;3;181;533;18;7;0;2580;6;0;326;11;8;0;2586;6;0;329;11;9;0;1337;6;0;341;7
11.12.17;16:00:00;1;252;6613;0;2;0;2376;6;0;392;8;3;0;1416;3;4;456;11;4;0;1948;1;0;203;8;5;3;5361;4;0;0;420;656;20;6;0;3507;23;6;4;182;570;19;7;0;2580;6;0;389;11;8;0;2586;6;0;396;11;9;0;1337;6;0;420;7
11.12.17;15:55:00;1;254;6592;0;2;0;2376;6;0;403;8;3;1;1416;6;3;474;11;4;0;1948;1;0;205;8;5;10;5361;4;2;2;419;667;20;6;0;3507;23;5;3;183;582;19;7;0;2580;6;2;421;12;8;0;2586;6;1;419;11;9;1;1337;6;0;456;7
11.12.17;15:50:00;1;491;6570;0;2;0;2376;6;0;412;8;3;2;1416;6;4;500;11;4;0;1948;3;0;215;8;5;72;5359;4;18;21;378;602;21;6;29;3507;1;9;17;540;520;20;7;2;2580;6;1;446;12;8;2;2586;6;1;437;11;9;1;1337;6;1;471;8
11.12.17;15:45:00;1;252;6518;0;2;0;2376;6;0;418;9;3;0;1416;6;6;507;11;4;0;1948;3;0;225;8;5;84;5353;4;27;28;378;602;21;6;62;3505;4;32;49;474;452;20;7;0;2579;6;2;455;12;8;0;2586;6;0;480;11;9;4;1337;3;5;473;8
11.12.17;15:40:00;1;252;6497;0;2;7;2376;4;15;400;9;3;1;1416;6;5;518;11;4;0;1948;3;0;231;8;5;104;5346;4;38;37;378;602;21;6;33;3500;4;12;16;543;539;20;7;0;2579;6;4;468;12;8;1;2586;4;8;448;11;9;0;1336;6;3;517;8
11.12.17;15:35:00;1;361;6476;0;2;7;2375;6;12;414;9;3;0;1416;6;0;547;12;4;1;1948;3;1;199;9;5;124;5337;4;51;46;378;602;21;6;40;3498;1;24;23;357;340;21;7;7;2579;3;13;446;12;8;2;2586;6;9;474;12;9;1;1336;6;10;489;8
11.12.17;15:30:00;1;537;6433;0;2;14;2374;6;24;402;9;3;6;1416;4;17;496;12;4;5;1948;3;5;199;9;5;142;5327;4;58;56;378;602;21;6;52;3495;4;14;13;289;273;21;7;3;2579;6;9;482;12;8;10;2585;6;17;453;12;9;1;1336;6;6;529;8
11.12.17;15:25:00;1;253;6405;0;2;29;2373;6;41;386;9;3;4;1415;6;10;528;12;4;5;1948;3;5;199;9;5;151;5315;4;61;60;378;602;21;6;63;3490;4;52;49;289;273;21;7;7;2578;6;12;486;13;8;5;2585;6;10;486;12;9;1;1336;6;6;535;8
11.12.17;15:20:00;1;286;6384;0;2;53;2371;4;79;361;10;3;4;1415;6;9;522;12;4;9;1947;3;9;199;9;5;169;5302;4;72;65;378;602;21;6;67;3485;4;29;26;289;273;21;7;27;2578;6;46;409;13;8;25;2584;6;43;410;12;9;2;1336;6;6;545;8
11.12.17;15:15:00;1;864;6357;0;2;54;2367;4;80;361;10;3;6;1414;6;11;533;12;4;12;1947;3;12;199;9;5;168;5288;4;69;69;378;602;21;6;72;3479;4;40;39;289;273;21;7;41;2576;4;71;354;13;8;41;2582;4;67;357;12;9;8;1336;3;16;510;8
11.12.17;15:10:00;1;297;6306;0;2;55;2362;4;83;375;10;3;5;1414;6;9;537;12;4;11;1946;3;11;199;9;5;177;5274;4;76;69;378;602;21;6;73;3473;4;46;42;289;273;21;7;47;2572;4;74;359;13;8;41;2579;4;72;357;12;9;3;1335;6;7;549;8
11.12.17;15:05:00;1;306;6281;0;2;56;2358;4;84;366;10;3;0;1413;6;0;562;12;4;17;1945;3;18;199;9;5;179;5259;4;77;70;378;602;21;6;75;3467;4;50;45;289;273;21;7;39;2568;4;74;368;13;8;41;2575;4;74;354;12;9;4;1335;6;8;543;8
11.12.17;15:00:00;1;494;6259;0;2;69;2353;4;95;359;10;3;11;1413;4;21;514;12;4;25;1943;3;27;198;9;5;198;5244;4;94;79;378;602;21;6;84;3460;4;40;37;289;273;21;7;47;2565;4;85;434;13;8;58;2572;4;79;360;12;9;4;1335;6;8;550;8
11.12.17;14:55:00;1;253;6210;0;2;80;2347;4;108;384;10;3;16;1412;3;28;515;12;4;37;1941;3;38;198;9;5;218;5228;4;110;87;378;602;21;6;89;3454;4;37;32;289;273;21;7;70;2561;4;96;433;13;8;62;2567;4;95;407;13;9;6;1334;6;12;552;8
11.12.17;14:50:00;1;253;6189;0;2;92;2341;4;118;379;10;3;8;1411;6;13;551;12;4;45;1938;3;47;198;9;5;236;5209;4;114;98;378;602;21;6;94;3446;4;45;41;289;273;21;7;71;2555;4;108;440;13;8;71;2562;4;106;445;13;9;5;1334;6;10;560;8
11.12.17;14:45:00;1;582;6167;0;2;92;2333;4;119;366;10;3;9;1410;6;16;547;12;4;46;1934;3;48;198;9;5;238;5190;4;113;98;378;602;21;6;96;3438;4;45;39;289;273;21;7;69;2549;4;107;441;13;8;75;2556;4;108;444;13;9;7;1333;4;12;555;8
11.12.17;14:40:00;1;253;6115;0;2;90;2325;4;118;373;10;3;8;1409;6;13;551;12;4;35;1930;3;37;198;9;5;236;5170;4;111;102;378;602;21;6;96;3430;4;40;35;289;273;21;7;80;2543;4;110;448;13;8;74;2550;4;108;442;13;9;6;1332;6;10;560;8
11.12.17;14:35:00;1;253;6094;0;2;86;2318;4;111;363;10;3;0;1409;6;0;573;12;4;40;1927;3;41;198;9;5;224;5150;4;108;94;378;602;21;6;93;3421;4;53;47;289;273;21;7;65;2537;4;97;412;13;8;70;2544;4;100;413;13;9;7;1332;6;10;553;9
11.12.17;14:30:00;1;274;6072;0;2;106;2311;4;134;384;10;3;58;1409;4;95;464;13;4;60;1924;3;62;198;9;5;269;5131;4;130;112;378;602;21;6;107;3414;4;69;59;289;273;21;7;96;2531;4;116;379;13;8;92;2538;4;125;430;13;9;15;1331;6;22;536;9
11.12.17;14:25:00;1;555;6031;0;2;114;2302;4;141;376;10;3;61;1404;4;98;479;13;4;62;1919;3;65;198;9;5;276;5109;4;137;115;378;602;21;6;114;3404;4;55;49;289;273;21;7;94;2523;4;121;376;13;8;96;2530;4;128;415;13;9;9;1330;6;14;561;9
11.12.17;14:20:00;1;294;6000;0;2;129;2292;4;158;381;10;3;73;1399;4;109;477;13;4;75;1914;3;78;199;9;5;300;5086;4;148;127;378;602;21;6;125;3395;4;56;52;289;273;21;7;108;2515;4;143;407;13;8;108;2522;4;142;410;13;9;9;1330;6;14;569;9
11.12.17;14:15:00;1;297;5976;0;2;134;2281;4;163;387;10;3;77;1393;4;112;476;13;4;83;1907;3;86;199;9;5;313;5060;4;150;130;378;602;21;6;129;3384;4;71;69;288;273;21;7;120;2507;4;153;408;13;8;118;2513;4;152;407;13;9;12;1329;4;16;564;9
11.12.17;14:10:00;1;776;5951;0;2;137;2270;4;168;393;10;3;79;1386;4;118;493;13;4;88;1901;3;91;199;9;5;326;5034;4;166;130;378;602;21;6;137;3374;4;67;67;288;274;21;7;132;2496;4;163;438;13;8;125;2503;4;163;447;13;9;69;1327;4;93;452;9
11.12.17;14:05:00;1;318;5894;0;2;132;2259;4;159;376;10;3;76;1380;4;108;464;13;4;85;1893;3;88;199;9;5;312;5007;4;153;129;378;602;21;6;131;3362;4;62;56;288;274;21;7;126;2486;4;157;457;13;8;118;2493;4;154;471;13;9;25;1322;3;35;539;9
11.12.17;14:00:00;1;318;5867;0;2;93;2248;4;119;374;10;3;16;1373;6;27;530;13;4;48;1886;3;50;198;9;5;245;4981;4;115;101;378;602;21;6;97;3351;4;49;44;289;273;21;7;79;2475;4;114;450;13;8;75;2483;4;114;454;13;9;6;1319;6;10;563;9
11.12.17;13:55:00;1;605;5841;0;2;68;2240;4;95;370;10;3;6;1372;6;13;539;13;4;29;1882;3;30;198;9;5;195;4961;4;90;78;378;602;21;6;78;3343;4;37;33;289;273;21;7;63;2468;4;83;367;13;8;52;2476;4;82;363;13;9;11;1318;6;19;515;9
11.12.17;13:50:00;1;320;5784;0;2;75;2234;4;101;362;11;3;5;1372;6;11;545;13;4;30;1879;3;32;197;10;5;195;4945;4;94;81;378;602;21;6;85;3336;4;39;34;289;273;21;7;53;2463;4;83;404;13;8;53;2472;4;81;407;13;9;3;1318;6;7;551;9
11.12.17;13:45:00;1;321;5758;0;2;116;2228;4;146;378;11;3;56;1371;6;85;499;13;4;63;1877;3;66;198;10;5;272;4928;4;132;116;378;602;21;6;118;3329;4;54;51;289;282;21;7;94;2458;4;120;430;13;8;79;2468;4;116;434;13;9;7;1317;6;12;558;10
11.12.17;13:40:00;1;322;5731;0;2;186;2218;4;216;386;11;3;106;1367;4;146;511;14;4;128;1872;5;133;226;10;5;398;4904;4;203;169;394;607;21;6;258;3319;4;112;143;419;500;21;7;156;2451;4;183;432;13;8;153;2461;4;183;425;13;9;70;1317;6;91;489;10
11.12.17;13:35:00;1;606;5704;0;2;235;2203;4;267;391;11;3;143;1359;4;180;499;14;4;178;1861;5;185;232;10;5;492;4870;4;246;211;408;632;21;6;374;3297;4;175;190;586;564;21;7;209;2438;4;248;449;13;8;207;2449;4;253;460;13;9;114;1311;4;142;503;10